Weather reports worldwide

Advertisment
Aviemore, United Kingdom (3063): temperature & dewpoint: 22.01.2020 06:00:00 - 28.01.2020 06:00:00 (GMT)Aviemore, United Kingdom (3063): temperature -20cm & temperature -100cm: 22.01.2020 06:00:00 - 28.01.2020 06:00:00 (GMT)Aviemore, United Kingdom (3063): wind speed & gusts: 22.01.2020 06:00:00 - 28.01.2020 06:00:00 (GMT)Aviemore, United Kingdom (3063): wind direction: 22.01.2020 06:00:00 - 28.01.2020 06:00:00 (GMT)Aviemore, United Kingdom (3063): reduced air pressure: 22.01.2020 06:00:00 - 28.01.2020 06:00:00 (GMT)Aviemore, United Kingdom (3063): visibility: 22.01.2020 06:00:00 - 28.01.2020 06:00:00 (GMT)Aviemore, United Kingdom (3063): sunshine duration: 22.01.2020 06:00:00 - 28.01.2020 06:00:00 (GMT)Aviemore, United Kingdom (3063): precipitation: 22.01.2020 06:00:00 - 28.01.2020 06:00:00 (GMT)
Date & Time tt [°C] td [°C] tt -20cm [°C] tt -100cm [°C] ff [km/h] ff [kn] fx [km/h] fx [kn] dd ppp [hPa] vv [km] sd [min] rr [mm]
28.01.2020 06:00:00 - - - - - - - - - - - - -
28.01.2020 05:00:00 - - - - - - - - - - - - -
28.01.2020 04:00:00 - - - - - - - - - - - - -
28.01.2020 03:00:00 - - - - - - - - - - - - -
28.01.2020 02:00:00 - - - - - - - - - - - - -
28.01.2020 01:00:00 - - - - - - - - - - - - -
28.01.2020 00:00:00 - - - - - - - - - - - - -
27.01.2020 23:00:00 - - - - - - - - - - - - -
27.01.2020 22:00:00 - - - - - - - - - - - - -
27.01.2020 21:00:00 - - - - - - - - - - - - -
27.01.2020 20:00:00 0,8 -1,6 - - 21 11 - - SW 984,2 40 0 0,0
27.01.2020 19:00:00 0,3 -1,2 - - 16 9 - - SW 984,6 45 0 0,0
27.01.2020 18:00:00 0,4 -0,5 - - 16 9 - - SW 985,4 26 0 0,0
27.01.2020 17:00:00 0,3 -0,6 - - 15 8 - - SW 985,7 40 0 0,0
27.01.2020 16:00:00 0,2 -0,3 - - 13 7 - - SW 986,1 29 0 0,0
27.01.2020 15:00:00 0,3 -0,5 - - 13 7 50 27 SSW 987,0 1,1 0 0,0
27.01.2020 14:00:00 2,3 -1,9 - - 18 10 46 25 SSW 986,4 40 42 0,0
27.01.2020 13:00:00 1,7 -0,9 - - 16 9 - - SW 986,5 35 6 0,0
27.01.2020 12:00:00 1,9 -1,9 - - 15 8 - - SSW 986,8 45 54 0,0
27.01.2020 11:00:00 2,0 -1,1 - - 15 8 - - SW 987,3 40 60 1,0
27.01.2020 10:00:00 0,3 -0,2 - - 15 8 - - SSW 987,4 45 18 0,0
27.01.2020 09:00:00 0,1 -0,5 4,7 4,7 11 6 46 25 SSW 987,8 2,8 0 0,2
27.01.2020 08:00:00 1,3 -0,8 - - 13 7 - - SSW 987,6 35 0 0,2
27.01.2020 07:00:00 1,0 -0,2 - - 15 8 - - SW 987,6 5 0 0,4
27.01.2020 06:00:00 2,5 -1,7 - - 15 8 - - SSW 987,5 45 0 0,0
27.01.2020 05:00:00 2,5 -2,0 - - 16 9 48 26 SW 988,2 50 0 0,0
27.01.2020 04:00:00 2,2 -1,8 - - 18 10 - - SSW 989,1 50 0 0,0
27.01.2020 03:00:00 2,1 -1,6 - - 15 8 - - SSW 990,2 45 0 0,0
27.01.2020 02:00:00 1,8 -2,5 - - 16 9 - - SSW 991,3 50 0 0,0
27.01.2020 01:00:00 2,2 -3,3 - - 16 9 - - SSW 993,0 30 0 0,0
27.01.2020 00:00:00 1,3 -2,4 - - 9 5 - - SSW 994,3 35 - 0,0
26.01.2020 23:00:00 0,8 -2,7 - - 13 7 - - SW 995,6 30 0 0,0
26.01.2020 22:00:00 -2,5 -3,7 - - 4 2 - - SW 996,7 22 0 0,0
26.01.2020 21:00:00 -2,1 -2,9 - - 5 3 - - NNE 996,8 25 0 0,0
26.01.2020 20:00:00 -1,6 -2,8 - - 4 2 - - SSE 997,4 30 0 0,0
26.01.2020 19:00:00 0,2 -1,6 - - 5 3 - - SW 997,8 45 0 0,0
26.01.2020 18:00:00 0,9 -0,7 - - 9 5 - - SW 997,7 40 0 0,0
26.01.2020 17:00:00 1,1 -0,8 - - 9 5 - - SSW 997,3 45 0 0,0
26.01.2020 16:00:00 2,2 0,1 - - 8 4 - - SSW 996,7 50 0 0,0
26.01.2020 15:00:00 4,6 0,6 - - 8 4 - - SSW 996,2 29 18 0,0
26.01.2020 14:00:00 4,6 1,3 - - 9 5 - - SSW 995,9 30 0 0,0
26.01.2020 13:00:00 5,4 2,6 - - 5 3 - - SW 995,7 45 0 0,0
26.01.2020 12:00:00 5,4 2,3 - - 8 4 - - SSW 995,5 35 0 0,0
26.01.2020 11:00:00 5,9 3,6 - - 5 3 - - SW 995,0 50 0 0,2
26.01.2020 10:00:00 6,0 4,2 - - 9 5 - - WSW 994,5 5 0 0,4
26.01.2020 09:00:00 5,7 4,3 5,0 4,7 8 4 - - SW 994,4 12 0 1,6
26.01.2020 08:00:00 6,4 4,0 - - 13 7 - - SW 994,5 15 0 0,2
26.01.2020 07:00:00 7,0 3,4 - - 13 7 46 25 SW 994,5 50 0 0,0
26.01.2020 06:00:00 7,1 2,7 - - 16 9 46 25 SSW 994,9 50 0 0,0
26.01.2020 05:00:00 6,4 2,4 - - 15 8 - - SW 995,6 50 0 0,0
26.01.2020 04:00:00 6,4 2,5 - - 21 11 - - SW 996,5 50 0 0,0
26.01.2020 03:00:00 6,3 2,6 - - 18 10 48 26 SSW 997,1 29 0 0,0
26.01.2020 02:00:00 6,1 2,4 - - 16 9 54 29 SW 998,2 50 0 0,0
26.01.2020 01:00:00 6,4 2,2 - - 24 13 54 29 SSW 998,4 50 0 0,0
26.01.2020 00:00:00 6,3 2,4 - - 21 11 57 31 SSW 999,5 45 - 0,0
25.01.2020 23:00:00 6,4 2,4 - - 28 15 61 33 SSW 999,8 45 0 0,0
25.01.2020 22:00:00 6,7 2,3 - - 24 13 54 29 SSW 1001,1 50 0 0,0
25.01.2020 21:00:00 6,3 2,1 - - 13 7 - - SSW 1002,4 50 0 0,0
25.01.2020 20:00:00 6,3 1,8 - - 13 7 - - SSW 1003,1 45 0 0,0
25.01.2020 19:00:00 6,3 1,8 - - 15 8 - - SSW 1003,6 50 0 0,0
25.01.2020 18:00:00 6,5 1,6 - - 18 10 46 25 SW 1003,1 50 0 0,0
25.01.2020 17:00:00 6,2 1,5 - - 15 8 - - SW 1004,1 50 0 0,0
25.01.2020 16:00:00 6,5 1,6 - - 18 10 46 25 SW 1004,4 50 0 0,0
25.01.2020 15:00:00 7,1 1,4 - - 22 12 46 25 SSW 1005,0 50 24 0,0
25.01.2020 14:00:00 6,7 1,7 - - 26 14 54 29 S 1005,3 45 0 0,0
25.01.2020 13:00:00 6,9 2,1 - - 21 11 54 29 SSW 1005,8 45 24 0,0
25.01.2020 12:00:00 6,8 2,5 - - 21 11 50 27 SSW 1006,4 40 0 0,0
25.01.2020 11:00:00 7,0 2,9 - - 22 12 - - SSW 1006,8 40 0 0,0
25.01.2020 10:00:00 6,9 3,3 - - 15 8 - - SSW 1006,9 50 0 0,0
25.01.2020 09:00:00 6,3 3,2 4,9 4,7 21 11 46 25 SSW 1007,1 50 0 0,0
25.01.2020 08:00:00 6,3 3,1 - - 21 11 - - SW 1006,8 50 0 0,0
25.01.2020 07:00:00 6,5 2,8 - - 16 9 - - SSW 1007,2 50 0 0,0
25.01.2020 06:00:00 6,3 2,2 - - 18 10 - - SSW 1007,3 50 0 0,0
25.01.2020 05:00:00 6,4 2,3 - - 16 9 46 25 SSW 1007,6 50 0 0,0
25.01.2020 04:00:00 6,8 2,8 - - 21 11 54 29 SSW 1007,8 50 0 0,0
25.01.2020 03:00:00 7,5 3,9 - - 21 11 59 32 SSW 1008,3 50 0 0,0
25.01.2020 02:00:00 7,6 4,5 - - 16 9 - - SW 1009,6 50 0 0,0
25.01.2020 01:00:00 7,6 4,6 - - 15 8 - - SSW 1010,2 50 0 0,0
25.01.2020 00:00:00 7,5 4,5 - - 8 4 - - SSW 1011,7 40 - 0,0
24.01.2020 23:00:00 7,3 4,4 - - 8 4 - - SW 1012,4 50 0 0,0
24.01.2020 22:00:00 6,7 4,4 - - 8 4 - - SW 1013,3 45 0 0,0
24.01.2020 21:00:00 6,5 4,1 - - 11 6 - - SSW 1014,2 50 0 0,0
24.01.2020 20:00:00 6,4 3,7 - - 13 7 - - SW 1014,4 50 0 0,0
24.01.2020 19:00:00 6,0 3,5 - - 13 7 - - WSW 1015,3 50 0 0,0
24.01.2020 18:00:00 6,1 3,5 - - 8 4 - - SW 1015,6 50 0 0,0
24.01.2020 17:00:00 5,9 3,1 - - 5 3 - - SSW 1015,7 35 0 0,0
24.01.2020 16:00:00 6,3 3,2 - - 4 2 - - SSW 1016,3 45 0 0,0
24.01.2020 15:00:00 6,3 3,2 - - 5 3 - - SSW 1016,5 27 0 0,0
24.01.2020 14:00:00 6,3 2,7 - - 8 4 - - S 1016,9 35 0 0,0
24.01.2020 13:00:00 6,6 3,0 - - 8 4 - - S 1017,2 30 0 0,0
24.01.2020 12:00:00 6,4 2,4 - - 9 5 - - SSW 1017,9 50 0 0,0
24.01.2020 11:00:00 5,8 3,8 - - 5 3 - - SSW 1018,2 45 0 0,0
24.01.2020 10:00:00 5,5 3,4 - - 8 4 - - S 1017,8 40 0 0,0
24.01.2020 09:00:00 5,2 2,8 4,9 4,7 5 3 - - SSW 1017,9 45 0 0,0
24.01.2020 08:00:00 6,0 2,0 - - 8 4 - - SSW 1017,3 45 0 0,0
24.01.2020 07:00:00 6,0 3,3 - - 9 5 - - SSW 1017,5 50 0 0,0
24.01.2020 06:00:00 6,0 3,1 - - 9 5 - - SW 1017,3 50 0 0,0
24.01.2020 05:00:00 5,6 2,7 - - 5 3 - - SW 1017,1 50 0 0,0
24.01.2020 04:00:00 5,2 4,2 - - 4 2 - - SW 1017,6 50 0 0,0
24.01.2020 03:00:00 6,3 4,9 - - 4 2 - - SSW 1017,6 50 0 0,0
24.01.2020 02:00:00 7,8 5,9 - - 9 5 - - SW 1017,8 16 0 0,0
24.01.2020 01:00:00 7,3 6,2 - - 11 6 - - SW 1018,1 14 0 0,0
24.01.2020 00:00:00 6,9 6,1 - - 16 9 - - SSW 1018,3 7 - 0,0
23.01.2020 23:00:00 7,0 5,8 - - 13 7 - - SSW 1019,3 12 0 0,0
23.01.2020 22:00:00 6,7 5,8 - - 13 7 - - SSW 1019,6 8 0 0,0
23.01.2020 21:00:00 6,9 5,8 - - 13 7 - - SW 1020,0 8 0 0,0
23.01.2020 20:00:00 6,9 5,5 - - 13 7 - - SW 1020,6 16 0 0,0
23.01.2020 19:00:00 7,0 5,4 - - 13 7 - - SW 1020,9 35 0 0,0
23.01.2020 18:00:00 7,2 5,2 - - 13 7 - - SW 1021,4 30 0 0,0
23.01.2020 17:00:00 7,5 5,2 - - 13 7 - - SW 1021,4 50 0 0,0
23.01.2020 16:00:00 7,9 4,8 - - 13 7 - - SW 1021,8 50 0 0,0
23.01.2020 15:00:00 8,1 4,6 - - 13 7 - - SW 1022,4 50 18 0,0
23.01.2020 14:00:00 8,6 4,9 - - 18 10 - - SSW 1023,3 45 6 0,0
23.01.2020 13:00:00 8,2 4,5 - - 13 7 - - SSW 1024,3 45 0 0,0
23.01.2020 12:00:00 8,3 4,5 - - 11 6 - - S 1025,3 50 0 0,0
23.01.2020 11:00:00 7,4 4,4 - - 11 6 - - SSW 1026,6 25 0 0,0
23.01.2020 10:00:00 6,8 4,0 - - 11 6 - - SSW 1026,7 45 0 0,0
23.01.2020 09:00:00 6,8 3,7 4,5 4,4 5 3 - - S 1027,5 50 0 0,0
23.01.2020 08:00:00 6,9 3,6 - - 9 5 - - SSW 1027,3 50 0 0,0
23.01.2020 07:00:00 6,8 3,7 - - 9 5 - - SW 1027,5 50 0 0,0
23.01.2020 06:00:00 7,1 3,5 - - 9 5 - - SW 1027,0 50 0 0,0
23.01.2020 05:00:00 7,4 3,6 - - 13 7 - - WSW 1028,2 50 0 0,0
23.01.2020 04:00:00 7,3 3,8 - - 9 5 - - SSW 1028,4 50 0 0,0
23.01.2020 03:00:00 8,1 5,3 - - 9 5 - - SW 1029,8 50 0 0,0
23.01.2020 02:00:00 8,4 4,8 - - 9 5 - - SW 1030,8 40 0 0,0
23.01.2020 01:00:00 8,5 4,6 - - 9 5 - - SSW 1031,6 45 0 0,0
23.01.2020 00:00:00 8,8 5,6 - - 4 2 - - ENE 1031,3 35 - 0,0
22.01.2020 23:00:00 8,7 6,1 - - 8 4 - - SSW 1032,1 45 0 0,0
22.01.2020 22:00:00 8,7 6,7 - - 5 3 - - SSW 1032,5 50 0 0,0
22.01.2020 21:00:00 8,7 6,9 - - 8 4 - - SSW 1033,3 50 0 0,0
22.01.2020 20:00:00 8,4 7,2 - - 5 3 - - SSW 1033,9 28 0 0,0
22.01.2020 19:00:00 8,8 7,6 - - 5 3 - - SW 1034,5 50 0 0,0
22.01.2020 18:00:00 8,9 7,5 - - 5 3 - - SW 1034,7 50 0 0,0
22.01.2020 17:00:00 9,5 7,6 - - 8 4 - - S 1035,0 50 0 0,0
22.01.2020 16:00:00 9,9 7,7 - - 5 3 - - S 1035,0 50 0 0,0
22.01.2020 15:00:00 10,4 7,8 - - 5 3 - - SSW 1034,6 50 0 0,0
22.01.2020 14:00:00 10,2 8,0 - - 8 4 - - S 1034,7 45 0 0,0
22.01.2020 13:00:00 10,2 7,8 - - 8 4 - - SSW 1035,3 50 6 0,0
22.01.2020 12:00:00 11,0 7,6 - - 5 3 - - SSE 1036,0 45 54 0,0
22.01.2020 11:00:00 9,3 7,3 - - 15 8 - - SSE 1036,0 35 18 0,0
22.01.2020 10:00:00 9,3 7,0 - - 5 3 - - SSW 1035,9 26 0 0,0
22.01.2020 09:00:00 8,8 6,9 4,0 4,2 8 4 - - SW 1035,8 30 0 0,0
22.01.2020 08:00:00 8,8 6,7 - - 11 6 - - S 1035,6 28 0 0,0
22.01.2020 07:00:00 8,7 7,0 - - 8 4 - - SSW 1035,5 45 0 0,0
22.01.2020 06:00:00 8,8 7,0 - - 8 4 - - S 1035,2 45 0 0,0

tt = temperature
td = dewpoint
tt -20cm = temperature -20cm
tt -100cm = temperature -100cm
ff = wind speed
fx = gusts
dd = wind direction
ppp = reduced air pressure
vv = visibility
sd = sunshine duration
rr = precipitation

Next stations